Location: Newark
(39.9267°N, 1.8017°W)
Time: 16:44:50
(UTC+00:00)

OTV 5 (USA 277) - Visible Passes

Search period start: 20 October 2019 00:00
Search period end: 30 October 2019 00:00
Orbit: 310 x 324 km, 54.5° (Epoch: 17 October)

Date Brightness Start Highest point End Pass type
(mag) Time Alt. Az. Time Alt. Az. Time Alt. Az.
20 Oct ? 05:05:03 38° NW 05:05:57 78° NE 05:08:40 10° SE visible
21 Oct ? 05:19:47 27° WSW 05:20:25 31° SW 05:22:52 10° SSE visible
22 Oct ? 05:34:41 11° SW 05:34:44 11° SW 05:35:34 10° SW visible
27 Oct ? 18:21:55 10° S 18:24:02 25° SE 18:24:02 25° SE visible
28 Oct ? 18:35:58 10° SW 18:38:40 84° SE 18:38:40 84° SE visible
29 Oct ? 18:50:46 10° WSW 18:53:10 32° NW 18:53:10 32° NW visible
